Home > Weather > Mechernich > Past weeks

Flag for Germany Weather for the Past 2 Weeks in Mechernich, North Rhine-Westphalia, Germany

Now
45 °F

Broken clouds.


Feels Like: 41 °F
Forecast: 32 / 40 °F
Wind: 7 mph from Southwest

Location: Noervenich

Current Time: Feb 11, 2016 at 4:07:31 PM

Latest Report: Feb 11, 2016 at 3:20 PM


Visibility: N/A

Pressure: 29.68 "Hg

Humidity: 66%

Dew point: 34 °F

Location of MechernichLocation

Historic Weather in Mechernich — Graph

°F

Mechernich Temperature Yesterday

Maximum temperature yesterday: 41 °F (at 1:20 PM)
Minimum temperature yesterday: 39 °F (at 12:20 AM)
Average temperature yesterday: 39 °F

High & Low Weather Summary for the Past Weeks

 TemperatureHumidityPressure
High55 °F (Jan 27, 2:20 PM)100% (Feb 2, 9:20 AM)30.33 "Hg (Feb 2, 9:20 AM)
Low34 °F (Jan 29, 1:20 AM)50% (Feb 7, 4:20 PM)28.85 "Hg (Feb 9, 3:20 PM)
Average45 °F77%29.86 "Hg
* Reported Jan 27 2:20 PM — Feb 11 2:20 PM, Mechernich, Weather by CustomWeather, © 2016

Note: Actual official high and low records may vary slightly from our data, if they occured in-between our weather recording intervals... More about our weather records

Advertising

Mechernich Weather History for the Previous 24 Hours

 ConditionsComfort  
Time TempWeatherWind HumidityBarometerVisibility
2:20 PM
Thu, Feb 11
45 °FBroken clouds.7 mph61%29.68 "HgN/A
1:20 PM45 °FBroken clouds.9 mph66%29.68 "HgN/A
12:20 PM45 °FBroken clouds.9 mph66%29.68 "HgN/A
11:20 AM43 °FPartly sunny.10 mph76%29.68 "HgN/A
10:20 AM41 °FPartly sunny.8 mph76%29.68 "HgN/A
9:20 AM39 °FPassing clouds.5 mph81%29.68 "HgN/A
8:20 AM37 °FPassing clouds.7 mph87%29.65 "HgN/A
7:20 AM37 °FPassing clouds.6 mph87%29.65 "HgN/A
6:20 AM37 °FPassing clouds.6 mph87%29.65 "HgN/A
5:20 AM37 °FPassing clouds.5 mph87%29.62 "HgN/A
4:20 AM39 °FPassing clouds.6 mph87%29.62 "HgN/A
3:20 AM39 °FPassing clouds.3 mph87%29.62 "HgN/A
2:20 AM39 °FPassing clouds.3 mph87%29.62 "HgN/A
1:20 AM39 °FPartly cloudy.6 mph87%29.59 "HgN/A
12:20 AM39 °FSprinkles. Partly cloudy.8 mph87%29.59 "HgN/A
11:20 PM
Wed, Feb 10
39 °FPartly cloudy.7 mph87%29.56 "HgN/A
10:20 PM39 °FPartly cloudy.6 mph87%29.56 "HgN/A
9:20 PM39 °FPartly cloudy.8 mph87%29.53 "HgN/A
8:20 PM39 °FPartly cloudy.13 mph87%29.50 "HgN/A
7:20 PM41 °FSprinkles. Partly cloudy.14 mph81%29.47 "HgN/A
6:20 PM41 °FPartly cloudy.7 mph81%29.45 "HgN/A
5:20 PM39 °FBroken clouds.9 mph87%29.42 "HgN/A
4:20 PM39 °FSprinkles. Broken clouds.12 mph93%29.42 "Hg5 mi
Weather by CustomWeather, © 2016

See weather overviewHow to use our weather pages